CZ-6A DEB

Satellite information

Favourite Embed

Satellite Type and Status

DEBRISIN ORBIT

Key statistics

Satellite CZ-6A DEB at a glance.

Uptime

335

Days in orbit

Revolutions

≈ 14.1

Per day

Orbit

LEO

Low Earth Orbit

Inclination

88.8

Latest

Satellite identification and parameters

Extended collection of information and parameters for CZ-6A DEB.

Object identification

Identified? True

Debris? True

Object name: CZ-6A DEB

International designator: 2024-140WH

Object number (NORAD): 61368

Object ID (CCSDS): 61368

Country: PEOPLES REPUBLIC OF CHINA (PRC)

Current information (Y/N): Y

RCS size: SMALL

Orbital parameters

Period: 102.422 minutes

Inclination: 88.8364 deg

SMA: 7251.406 km

Apoapsis: 958.399 km

Periapsis: 788.144 km

RAAN: 308.2561 deg

Eccentricy: 0.0117394

Argument of periapsis: 263.7126 deg

Mean anomaly: 95.0675 deg

Mean motion: 14.05948428 rev/day

Mean motion (dot): 0.0000208 rev/day2

B* drag term: 0.0011869 1/REarth

Two-line elements (TLE)

Creation date: July 6, 2025, 6:05 p.m.

Reference frame: TEME

Reference center: EARTH

Epoch: July 6, 2025, 7:04 a.m. UTC

TLE line 0: 0 CZ-6A DEB

TLE line 1: 1 61368U 24140WH 25187.29476525 .00002080 00000-0 11869-2 0 9995

TLE line 2: 2 61368 88.8364 308.2561 0117394 263.7126 95.0675 14.05948428 42823

Live tracking on map

Real-time ground track for satellite CZ-6A DEB.

In-orbit conjunctions

A list of the most updated potential collisions computed for object CZ-6A DEB.

Target Orbit TCA Probability of collision Miss distance Type
CZ-4B DEB SSO 2025-01-29 05:58:41 0.0002499464 254.0 (m) DEBRIS
NOAA 16 DEB SSO 2025-01-26 07:42:52 0.0002840979 86.0 (m) DEBRIS
NOAA 16 DEB SSO 2025-01-26 00:56:09 0.0001819667 370.0 (m) DEBRIS
CZ-4B DEB LEO 2025-01-02 17:28:20 0.0002619748 499.0 (m) DEBRIS
METEOR 2-20 DEB LEO 2024-12-28 08:42:55 0.0002499281 567.0 (m) DEBRIS

Associated space launch

18 Low Earth Orbit communication satellites with Ku, Q and V band payloads for the G60 constellation operated by Shanghai Spacecom Satellite Technology (SSST) with funding backed by the Shanghai local government. Initial constellation will consist of 1296 satellites by 2027 with long term plans to expand it to 12000 satellites.

CZ-6A DEB was lifted into orbit during the mission ‘Long March 6A | G60 Polar Group 01’, on board a Long March 6A space rocket.

The launch took place on Aug. 6, 2024, 6:42 a.m. from Launch Complex 9A.

For more information about the launch, click the button.

Launch to space Long March 6A | G60 Polar Group 01
Long March 6A | G60 Polar Group 01

Agency: N/A

Status: Launch Successful

Launch date: Aug. 6, 2024, 6:42 a.m. UTC

Rocket: Long March 6A

Launch pad: Launch Complex 9A

Location: Taiyuan Satellite Launch Center, People's Republic of China

...

Latest news about this satellite

News about space launch
Brightness of first Chinese broadband constellation satellites alarms astronomers

The first satellites of a Chinese broadband constellation are significantly brighter than those of Western systems, posing a new challenge for astronomers.

News about space launch
Chinese rocket stage breaks up into cloud of more than 700 pieces of space debris

HELSINKI — A Chinese Long March 6A rocket’s upper stage has fragmented into a cloud of over 700 pieces of space debris, adding to concerns about long-term orbital safety. China […]

News about space launch
China's Thousand Sails Megaconstellation Kicks Off with Dangerous Debris Field

China's Thousand Sails Megaconstellation Kicks Off with Dangerous Debris Field


Newsletter sign-up

Weekly statistics, charts and insights to help you stay on top of the space industry.